TimeCST,TemperatureF,Dew PointF,Humidity,Sea Level PressureIn,VisibilityMPH,Wind Direction,Wind SpeedMPH,Gust SpeedMPH,PrecipitationIn,Events,Conditions,WindDirDegrees,DateUTC
12:14 AM,30.2,23.0,75,29.91,10.0,SSE,4.6,-,N/A,,Mostly Cloudy,150,2011-11-11 06:14:00
12:33 AM,30.2,23.0,75,29.90,10.0,SSE,3.5,-,N/A,,Scattered Clouds,160,2011-11-11 06:33:00
12:53 AM,30.2,23.0,75,29.89,10.0,SSE,4.6,-,N/A,,Scattered Clouds,160,2011-11-11 06:53:00
1:13 AM,30.2,23.0,75,29.87,10.0,SSE,5.8,-,N/A,,Scattered Clouds,160,2011-11-11 07:13:00
1:33 AM,32.0,23.0,69,29.86,10.0,SSE,5.8,-,N/A,,Scattered Clouds,160,2011-11-11 07:33:00
1:53 AM,32.0,21.2,64,29.85,10.0,South,5.8,-,N/A,,Clear,170,2011-11-11 07:53:00
2:14 AM,32.0,21.2,64,29.84,10.0,SSE,5.8,-,N/A,,Scattered Clouds,160,2011-11-11 08:14:00
2:33 AM,32.0,21.2,64,29.84,10.0,SSE,4.6,-,N/A,,Scattered Clouds,160,2011-11-11 08:33:00
2:53 AM,32.0,19.4,60,29.82,10.0,SSE,5.8,-,N/A,,Scattered Clouds,150,2011-11-11 08:53:00
3:13 AM,32.0,19.4,60,29.81,10.0,SSE,4.6,-,N/A,,Clear,160,2011-11-11 09:13:00
3:33 AM,33.8,19.4,56,29.80,10.0,SSE,4.6,-,N/A,,Clear,160,2011-11-11 09:33:00
3:53 AM,33.8,17.6,52,29.79,10.0,SSE,6.9,-,N/A,,Clear,150,2011-11-11 09:53:00
4:33 AM,33.8,15.8,48,29.77,10.0,SSE,5.8,-,N/A,,Clear,160,2011-11-11 10:33:00
4:53 AM,33.8,15.8,48,29.75,10.0,SSE,9.2,-,N/A,,Scattered Clouds,160,2011-11-11 10:53:00
5:14 AM,35.6,15.8,44,29.73,10.0,SSE,8.1,-,N/A,,Scattered Clouds,150,2011-11-11 11:14:00
5:33 AM,33.8,15.8,48,29.72,10.0,SSE,11.5,-,N/A,,Clear,160,2011-11-11 11:33:00
6:14 AM,33.8,15.8,48,29.70,10.0,SSE,9.2,-,N/A,,Clear,160,2011-11-11 12:14:00
6:33 AM,33.8,15.8,48,29.70,10.0,SSE,6.9,-,N/A,,Clear,150,2011-11-11 12:33:00
6:53 AM,32.0,15.8,51,29.69,10.0,SSE,8.1,-,N/A,,Scattered Clouds,160,2011-11-11 12:53:00
7:13 AM,32.0,15.8,51,29.69,10.0,SSE,8.1,-,N/A,,Mostly Cloudy,150,2011-11-11 13:13:00
7:33 AM,30.2,17.6,60,29.69,10.0,SSE,5.8,-,N/A,,Scattered Clouds,160,2011-11-11 13:33:00
7:54 AM,32.0,17.6,55,29.68,10.0,SSE,4.6,-,N/A,,Clear,160,2011-11-11 13:54:00
8:13 AM,33.8,17.6,52,29.67,10.0,SSE,5.8,-,N/A,,Clear,160,2011-11-11 14:13:00
8:33 AM,33.8,17.6,52,29.66,10.0,SSE,5.8,-,N/A,,Clear,160,2011-11-11 14:33:00
9:13 AM,35.6,19.4,52,29.66,10.0,South,6.9,-,N/A,,Clear,190,2011-11-11 15:13:00
9:33 AM,37.4,19.4,48,29.65,10.0,SSW,4.6,-,N/A,,Clear,210,2011-11-11 15:33:00
9:53 AM,37.4,19.4,48,29.65,10.0,SSW,6.9,-,N/A,,Clear,210,2011-11-11 15:53:00
10:13 AM,39.2,19.4,45,29.64,10.0,SSW,3.5,-,N/A,,Clear,210,2011-11-11 16:13:00
10:33 AM,41.0,21.2,45,29.63,10.0,SW,4.6,-,N/A,,Clear,220,2011-11-11 16:33:00
10:54 AM,42.8,21.2,42,29.63,10.0,SW,4.6,-,N/A,,Clear,220,2011-11-11 16:54:00
11:13 AM,42.8,21.2,42,29.63,10.0,SW,4.6,-,N/A,,Clear,220,2011-11-11 17:13:00
11:33 AM,44.6,21.2,39,29.63,10.0,WSW,6.9,-,N/A,,Clear,250,2011-11-11 17:33:00
11:53 AM,44.6,21.2,39,29.62,10.0,WSW,6.9,-,N/A,,Clear,240,2011-11-11 17:53:00
12:33 PM,46.4,21.2,37,29.61,10.0,WSW,5.8,-,N/A,,Clear,250,2011-11-11 18:33:00
12:53 PM,48.2,21.2,34,29.61,10.0,WSW,5.8,-,N/A,,Clear,240,2011-11-11 18:53:00
1:33 PM,50.0,21.2,32,29.60,10.0,West,6.9,-,N/A,,Clear,260,2011-11-11 19:33:00
1:53 PM,51.8,21.2,30,29.60,10.0,SW,4.6,-,N/A,,Clear,230,2011-11-11 19:53:00
2:13 PM,51.8,21.2,30,29.59,10.0,WSW,8.1,-,N/A,,Clear,250,2011-11-11 20:13:00
2:33 PM,51.8,21.2,30,29.59,10.0,WSW,5.8,-,N/A,,Clear,240,2011-11-11 20:33:00
2:53 PM,51.8,23.0,33,29.59,10.0,WSW,5.8,-,N/A,,Clear,250,2011-11-11 20:53:00
3:13 PM,51.8,23.0,33,29.59,10.0,West,6.9,-,N/A,,Clear,260,2011-11-11 21:13:00
3:33 PM,51.8,23.0,33,29.60,10.0,West,8.1,-,N/A,,Clear,260,2011-11-11 21:33:00
3:53 PM,51.8,23.0,33,29.59,10.0,WSW,5.8,-,N/A,,Clear,250,2011-11-11 21:53:00
4:13 PM,51.8,23.0,33,29.59,10.0,WSW,4.6,-,N/A,,Clear,240,2011-11-11 22:13:00
4:33 PM,50.0,23.0,35,29.59,10.0,Calm,Calm,-,N/A,,Clear,0,2011-11-11 22:33:00
4:53 PM,48.2,24.8,40,29.58,10.0,Calm,Calm,-,N/A,,Clear,0,2011-11-11 22:53:00
5:13 PM,46.4,24.8,43,29.58,10.0,Calm,Calm,-,N/A,,Clear,0,2011-11-11 23:13:00
5:33 PM,44.6,24.8,46,29.59,10.0,Calm,Calm,-,N/A,,Clear,0,2011-11-11 23:33:00
5:53 PM,44.6,24.8,46,29.59,10.0,Calm,Calm,-,N/A,,Clear,0,2011-11-11 23:53:00
6:13 PM,42.8,24.8,49,29.59,10.0,Calm,Calm,-,N/A,,Clear,0,2011-11-12 00:13:00
6:34 PM,41.0,24.8,53,29.59,10.0,Calm,Calm,-,N/A,,Clear,0,2011-11-12 00:34:00
6:53 PM,37.4,24.8,60,29.59,10.0,Calm,Calm,-,N/A,,Clear,0,2011-11-12 00:53:00
7:13 PM,41.0,24.8,53,29.59,10.0,Calm,Calm,-,N/A,,Clear,0,2011-11-12 01:13:00
7:33 PM,39.2,24.8,56,29.59,10.0,Calm,Calm,-,N/A,,Clear,0,2011-11-12 01:33:00
7:53 PM,35.6,24.8,65,29.58,10.0,Calm,Calm,-,N/A,,Clear,0,2011-11-12 01:53:00
8:13 PM,35.6,24.8,65,29.58,10.0,Calm,Calm,-,N/A,,Clear,0,2011-11-12 02:13:00
8:34 PM,39.2,26.6,61,29.58,10.0,Calm,Calm,-,N/A,,Clear,0,2011-11-12 02:34:00
8:53 PM,37.4,26.6,65,29.58,10.0,Calm,Calm,-,N/A,,Clear,0,2011-11-12 02:53:00
9:13 PM,39.2,26.6,61,29.57,10.0,Calm,Calm,-,N/A,,Clear,0,2011-11-12 03:13:00
9:32 PM,37.4,26.6,65,29.58,10.0,Calm,Calm,-,N/A,,Clear,0,2011-11-12 03:32:00
9:53 PM,35.6,26.6,70,29.58,10.0,Calm,Calm,-,N/A,,Clear,0,2011-11-12 03:53:00
10:13 PM,35.6,24.8,65,29.58,10.0,Calm,Calm,-,N/A,,Clear,0,2011-11-12 04:13:00
10:32 PM,35.6,24.8,65,29.58,10.0,Calm,Calm,-,N/A,,Clear,0,2011-11-12 04:32:00
10:53 PM,35.6,23.0,60,29.58,10.0,Calm,Calm,-,N/A,,Clear,0,2011-11-12 04:53:00
11:13 PM,33.8,24.8,70,29.57,10.0,Calm,Calm,-,N/A,,Clear,0,2011-11-12 05:13:00
11:33 PM,35.6,24.8,65,29.56,10.0,Calm,Calm,-,N/A,,Clear,0,2011-11-12 05:33:00
11:53 PM,35.6,24.8,65,29.56,10.0,Calm,Calm,-,N/A,,Clear,0,2011-11-12 05:53:00